�������l�o���
Date,Time,MP-1(��Sv/h),MP-2(��Sv/h),MP-3(��Sv/h),MP-4(��Sv/h),MP-5(��Sv/h),MP-6(��Sv/h),MP-7(��Sv/h),MP-8(��Sv/h),����,����(m/s),���J
2020/06/04,00:00,0.699,1.008,0.642,1.216,0.876,0.403,0.689,0.647,�k�k��,4.4,��
2020/06/04,00:10,0.701,1.009,0.642,1.216,0.877,0.403,0.689,0.646,�k�k��,5.0,��
2020/06/04,00:20,0.700,1.007,0.642,1.213,0.876,0.402,0.689,0.646,�k,5.2,��
2020/06/04,00:30,0.700,1.009,0.642,1.217,0.879,0.403,0.689,0.647,�k,4.4,��
2020/06/04,00:40,0.701,1.009,0.641,1.214,0.878,0.403,0.691,0.646,�k�k��,4.7,��
2020/06/04,00:50,0.700,1.007,0.643,1.214,0.877,0.402,0.690,0.647,�k�k��,4.0,��
2020/06/04,01:00,0.701,1.009,0.641,1.213,0.876,0.402,0.687,0.648,�k�k��,5.0,��
2020/06/04,01:10,0.699,1.008,0.639,1.214,0.877,0.400,0.689,0.646,�k�k��,5.4,��
2020/06/04,01:20,0.698,1.008,0.639,1.215,0.878,0.399,0.687,0.646,�k,4.3,��
2020/06/04,01:30,0.698,1.009,0.642,1.215,0.877,0.402,0.687,0.645,�k,3.5,�L
2020/06/04,01:40,0.698,1.006,0.640,1.215,0.876,0.401,0.687,0.644,�k,3.5,�L
2020/06/04,01:50,0.697,1.006,0.641,1.215,0.877,0.400,0.687,0.646,�k,3.2,�L
2020/06/04,02:00,0.698,1.006,0.641,1.216,0.877,0.399,0.687,0.646,�k�k��,4.1,�L
2020/06/04,02:10,0.698,1.004,0.640,1.212,0.875,0.401,0.687,0.646,�k,4.2,�L
2020/06/04,02:20,0.700,1.008,0.638,1.214,0.879,0.402,0.688,0.646,�k,3.8,�L
2020/06/04,02:30,0.700,1.003,0.640,1.214,0.876,0.400,0.689,0.646,�k,3.5,��
2020/06/04,02:40,0.698,1.005,0.640,1.214,0.877,0.400,0.688,0.647,�k�k��,3.9,��
2020/06/04,02:50,0.699,1.007,0.640,1.213,0.875,0.399,0.688,0.647,�k�k��,3.8,��
2020/06/04,03:00,0.699,1.005,0.640,1.213,0.875,0.401,0.687,0.646,�k�k��,3.5,�L
2020/06/04,03:10,0.699,1.005,0.640,1.213,0.876,0.399,0.689,0.645,�k�k��,3.6,�L
2020/06/04,03:20,0.699,1.005,0.641,1.215,0.878,0.399,0.686,0.647,�k��,3.7,�L
2020/06/04,03:30,0.698,1.004,0.642,1.216,0.877,0.400,0.687,0.646,�k�k��,2.3,�L
2020/06/04,03:40,0.699,1.005,0.640,1.213,0.874,0.399,0.687,0.646,�k�k��,2.0,�L
2020/06/04,03:50,0.698,1.005,0.640,1.215,0.876,0.400,0.688,0.647,�k�k��,2.6,�L
2020/06/04,04:00,0.699,1.002,0.639,1.213,0.878,0.399,0.688,0.646,�k�k��,2.9,�L
2020/06/04,04:10,0.698,1.005,0.639,1.214,0.876,0.400,0.688,0.646,�k�k��,2.2,�L
2020/06/04,04:20,0.699,1.005,0.640,1.214,0.875,0.400,0.688,0.646,�k�k��,2.5,�L
2020/06/04,04:30,0.699,1.006,0.640,1.215,0.874,0.400,0.687,0.647,�k�k��,2.6,��
2020/06/04,04:40,0.699,1.004,0.639,1.214,0.874,0.400,0.686,0.646,�k��,3.0,��
2020/06/04,04:50,0.698,1.004,0.641,1.212,0.876,0.399,0.689,0.647,���k��,2.6,��
2020/06/04,05:00,0.698,1.005,0.640,1.214,0.877,0.399,0.688,0.646,���k��,3.0,��
2020/06/04,05:10,0.698,1.003,0.640,1.216,0.877,0.401,0.687,0.646,���k��,2.9,��
2020/06/04,05:20,0.698,1.004,0.643,1.217,0.877,0.397,0.687,0.646,���k��,2.9,��
2020/06/04,05:30,0.700,1.005,0.641,1.217,0.879,0.397,0.689,0.645,���k��,2.6,��
2020/06/04,05:40,0.698,1.005,0.641,1.216,0.875,0.399,0.688,0.646,�k�k��,1.7,��
2020/06/04,05:50,0.699,1.004,0.640,1.215,0.876,0.399,0.688,0.647,�k��,1.9,��
2020/06/04,06:00,0.700,1.002,0.642,1.213,0.876,0.398,0.688,0.646,�k��,1.5,��
2020/06/04,06:10,0.700,1.005,0.641,1.216,0.876,0.398,0.687,0.646,�k�k��,1.4,��
2020/06/04,06:20,0.699,1.007,0.643,1.214,0.876,0.400,0.688,0.645,�k�k��,2.6,�L
2020/06/04,06:30,0.699,1.007,0.641,1.217,0.877,0.400,0.688,0.646,�k�k��,3.5,�L
2020/06/04,06:40,0.699,1.007,0.641,1.217,0.878,0.401,0.689,0.643,�k��,3.2,��
2020/06/04,06:50,0.700,1.003,0.643,1.215,0.879,0.400,0.688,0.643,�k��,3.6,��
2020/06/04,07:00,0.697,1.006,0.642,1.216,0.875,0.398,0.687,0.646,�k��,2.0,��
2020/06/04,07:10,0.700,1.004,0.643,1.217,0.877,0.397,0.687,0.645,�k��,1.9,��
2020/06/04,07:20,0.701,1.004,0.641,1.216,0.876,0.398,0.687,0.646,�k�k��,1.7,��
2020/06/04,07:30,0.701,1.003,0.641,1.215,0.874,0.397,0.689,0.645,�k,1.4,��
2020/06/04,07:40,0.698,1.004,0.639,1.214,0.877,0.397,0.688,0.644,���k��,1.2,��
2020/06/04,07:50,0.698,1.002,0.643,1.216,0.875,0.398,0.687,0.645,�k��,1.9,��
2020/06/04,08:00,0.697,1.004,0.638,1.217,0.877,0.397,0.688,0.643,���k��,1.5,��
2020/06/04,08:10,0.699,1.006,0.639,1.213,0.876,0.397,0.688,0.642,���쓌,1.1,��
2020/06/04,08:20,0.698,1.003,0.640,1.213,0.875,0.397,0.687,0.644,�k�k��,2.3,��
2020/06/04,08:30,0.698,1.002,0.640,1.215,0.876,0.397,0.687,0.643,�k�k��,2.0,��
2020/06/04,08:40,0.697,0.997,0.639,1.214,0.875,0.398,0.688,0.644,�k��,2.3,��
2020/06/04,08:50,0.699,0.999,0.639,1.215,0.876,0.398,0.687,0.644,�k��,2.9,��
2020/06/04,09:00,0.699,0.999,0.638,1.217,0.876,0.399,0.687,0.644,�k�k��,2.9,��
2020/06/04,09:10,0.700,0.999,0.638,1.213,0.876,0.399,0.688,0.645,�k�k��,2.6,��
2020/06/04,09:20,0.699,1.001,0.640,1.212,0.875,0.399,0.688,0.643,�k��,2.6,��
2020/06/04,09:30,0.700,0.999,0.639,1.214,0.875,0.399,0.690,0.643,���k��,2.0,��
2020/06/04,09:40,0.701,0.999,0.641,1.217,0.876,0.397,0.689,0.644,���k��,1.9,��
2020/06/04,09:50,0.702,0.998,0.642,1.214,0.878,0.399,0.690,0.644,��,1.7,��
2020/06/04,10:00,0.701,0.999,0.641,1.216,0.878,0.397,0.689,0.645,�k��,2.0,��
2020/06/04,10:10,0.698,1.001,0.640,1.216,0.877,0.398,0.689,0.642,���k��,2.0,��
2020/06/04,10:20,0.699,1.000,0.639,1.218,0.877,0.398,0.690,0.643,�k��,2.0,��
2020/06/04,10:30,0.697,1.000,0.642,1.218,0.879,0.399,0.688,0.645,�k��,2.9,��
2020/06/04,10:40,0.700,0.999,0.641,1.216,0.878,0.401,0.689,0.645,�k��,2.3,��
2020/06/04,10:50,0.702,1.000,0.641,1.217,0.879,0.400,0.688,0.643,���k��,2.5,��
2020/06/04,11:00,0.701,1.000,0.643,1.216,0.881,0.399,0.691,0.646,��,3.3,��
2020/06/04,11:10,0.701,1.005,0.644,1.217,0.880,0.398,0.690,0.645,��,2.8,��
2020/06/04,11:20,0.701,1.002,0.642,1.213,0.881,0.399,0.690,0.645,��,2.9,��
2020/06/04,11:30,0.702,1.003,0.642,1.214,0.880,0.400,0.690,0.644,���쓌,2.0,��
2020/06/04,11:40,0.702,1.007,0.644,1.215,0.881,0.400,0.691,0.646,���쓌,1.7,��
2020/06/04,11:50,0.702,1.009,0.644,1.214,0.882,0.399,0.691,0.645,���쓌,1.7,��
2020/06/04,12:00,0.703,1.009,0.644,1.217,0.880,0.400,0.691,0.645,��,2.2,��
2020/06/04,12:10,0.703,1.007,0.644,1.216,0.883,0.399,0.692,0.647,���쓌,2.6,��
2020/06/04,12:20,0.703,1.009,0.645,1.216,0.881,0.400,0.690,0.645,��,3.0,��
2020/06/04,12:30,0.703,1.010,0.645,1.218,0.883,0.399,0.691,0.645,��,2.6,��
2020/06/04,12:40,0.703,1.009,0.639,1.218,0.884,0.400,0.690,0.645,���쓌,3.2,��
2020/06/04,12:50,0.706,1.010,0.636,1.215,0.885,0.400,0.690,0.645,�쓌,3.5,��
2020/06/04,13:00,0.703,1.008,0.637,1.215,0.882,0.399,0.692,0.646,�쓌,4.1,��
2020/06/04,13:10,0.703,1.008,0.641,1.214,0.884,0.399,0.690,0.646,�쓌,4.2,��
2020/06/04,13:20,0.704,1.010,0.641,1.221,0.885,0.399,0.692,0.646,��쓌,4.4,��
2020/06/04,13:30,0.703,1.009,0.638,1.216,0.884,0.400,0.690,0.646,��쓌,5.6,��
2020/06/04,13:40,0.704,1.006,0.641,1.217,0.882,0.400,0.691,0.645,��쓌,6.0,��
2020/06/04,13:50,0.703,1.008,0.638,1.215,0.883,0.399,0.690,0.646,��쓌,8.0,��
2020/06/04,14:00,0.703,1.007,0.638,1.216,0.884,0.400,0.691,0.647,��쓌,8.1,��
2020/06/04,14:10,0.705,1.005,0.638,1.217,0.881,0.400,0.690,0.648,��쓌,8.5,��
2020/06/04,14:20,0.704,1.008,0.638,1.215,0.886,0.400,0.692,0.645,��쓌,9.3,��
2020/06/04,14:30,0.705,1.010,0.638,1.217,0.881,0.401,0.692,0.646,��쓌,9.8,��
2020/06/04,14:40,0.704,1.007,0.641,1.217,0.884,0.400,0.691,0.646,��쓌,10.0,��
2020/06/04,14:50,0.705,1.010,0.641,1.219,0.884,0.400,0.691,0.647,��쓌,10.7,��
2020/06/04,15:00,0.705,1.012,0.641,1.217,0.885,0.402,0.691,0.646,��쓌,12.7,��
2020/06/04,15:10,0.704,1.013,0.635,1.217,0.884,0.402,0.691,0.646,��쓌,11.9,��
2020/06/04,15:20,0.706,1.014,0.637,1.217,0.883,0.401,0.690,0.645,��쓌,11.1,��
2020/06/04,15:30,0.705,1.011,0.640,1.217,0.885,0.403,0.691,0.647,��쓌,11.7,��
2020/06/04,15:40,0.706,1.012,0.640,1.218,0.884,0.402,0.692,0.646,��쓌,11.3,��
2020/06/04,15:50,0.706,1.013,0.639,1.217,0.888,0.402,0.692,0.646,��,12.5,��
2020/06/04,16:00,0.706,1.013,0.639,1.217,0.884,0.403,0.691,0.646,��쓌,11.4,��
2020/06/04,16:10,0.705,1.013,0.638,1.218,0.885,0.404,0.690,0.647,��쓌,12.0,��
2020/06/04,16:20,0.705,1.015,0.639,1.219,0.884,0.402,0.691,0.646,��쓌,13.5,��
2020/06/04,16:30,0.706,1.013,0.640,1.219,0.884,0.404,0.692,0.645,��쓌,12.5,��
2020/06/04,16:40,0.704,1.015,0.639,1.218,0.884,0.404,0.692,0.647,��,11.4,��
2020/06/04,16:50,0.704,1.015,0.638,1.218,0.884,0.403,0.691,0.645,��,11.6,��
2020/06/04,17:00,0.705,1.016,0.640,1.217,0.884,0.403,0.692,0.645,��,12.1,��
2020/06/04,17:10,0.705,1.016,0.640,1.221,0.884,0.405,0.690,0.646,��,11.9,��
2020/06/04,17:20,0.705,1.016,0.638,1.220,0.885,0.405,0.692,0.645,��,12.1,��
2020/06/04,17:30,0.705,1.013,0.639,1.219,0.883,0.405,0.691,0.645,��,11.9,��
2020/06/04,17:40,0.708,1.015,0.640,1.222,0.882,0.403,0.692,0.646,��,12.5,��
2020/06/04,17:50,0.705,1.016,0.639,1.221,0.886,0.404,0.691,0.647,��,12.4,��
2020/06/04,18:00,0.704,1.017,0.641,1.222,0.884,0.404,0.691,0.645,��,12.2,��
2020/06/04,18:10,0.705,1.018,0.639,1.222,0.885,0.403,0.689,0.646,��쓌,13.0,��
2020/06/04,18:20,0.706,1.014,0.640,1.218,0.885,0.404,0.691,0.646,��,14.1,��
2020/06/04,18:30,0.704,1.015,0.638,1.224,0.883,0.404,0.691,0.646,��쓌,13.8,��
2020/06/04,18:40,0.706,1.014,0.638,1.226,0.884,0.403,0.691,0.648,��,10.9,��
2020/06/04,18:50,0.705,1.014,0.638,1.224,0.883,0.402,0.691,0.648,��,9.8,��
2020/06/04,19:00,0.704,1.016,0.639,1.223,0.884,0.404,0.692,0.648,��,9.2,��
2020/06/04,19:10,0.701,1.013,0.638,1.224,0.884,0.403,0.692,0.649,��,8.6,��
2020/06/04,19:20,0.705,1.016,0.640,1.224,0.884,0.402,0.691,0.648,��,8.2,��
2020/06/04,19:30,0.704,1.016,0.642,1.225,0.884,0.403,0.693,0.648,��,8.1,��
2020/06/04,19:40,0.706,1.015,0.641,1.223,0.882,0.404,0.694,0.649,��,7.7,��
2020/06/04,19:50,0.705,1.017,0.641,1.223,0.884,0.404,0.692,0.649,��,8.2,��
2020/06/04,20:00,0.704,1.017,0.642,1.223,0.884,0.404,0.693,0.649,��,8.7,��
2020/06/04,20:10,0.705,1.020,0.641,1.226,0.885,0.404,0.694,0.650,��,8.0,��
2020/06/04,20:20,0.706,1.018,0.641,1.224,0.886,0.403,0.695,0.648,��,8.6,��
2020/06/04,20:30,0.704,1.021,0.642,1.224,0.888,0.406,0.694,0.650,��,8.5,��
2020/06/04,20:40,0.706,1.019,0.642,1.225,0.887,0.405,0.694,0.649,��,7.9,��
2020/06/04,20:50,0.706,1.019,0.643,1.221,0.887,0.405,0.693,0.649,��,6.4,��
2020/06/04,21:00,0.706,1.017,0.641,1.224,0.887,0.404,0.693,0.649,��,4.5,��
2020/06/04,21:10,0.705,1.020,0.643,1.223,0.887,0.404,0.694,0.649,��,5.0,��
2020/06/04,21:20,0.705,1.019,0.642,1.225,0.888,0.404,0.691,0.648,��,5.2,��
2020/06/04,21:30,0.705,1.019,0.643,1.222,0.886,0.406,0.693,0.649,��,4.8,��
2020/06/04,21:40,0.705,1.017,0.641,1.226,0.888,0.406,0.694,0.649,��,4.7,��
2020/06/04,21:50,0.706,1.019,0.643,1.222,0.888,0.406,0.693,0.648,��,7.1,��
2020/06/04,22:00,0.707,1.017,0.641,1.224,0.888,0.405,0.693,0.649,��,7.6,��
2020/06/04,22:10,0.705,1.018,0.641,1.223,0.886,0.406,0.694,0.649,��,7.5,��
2020/06/04,22:20,0.707,1.017,0.643,1.224,0.887,0.404,0.694,0.650,��,5.9,��
2020/06/04,22:30,0.706,1.016,0.641,1.223,0.887,0.405,0.695,0.648,��,6.1,��
2020/06/04,22:40,0.706,1.016,0.643,1.225,0.889,0.404,0.694,0.648,��,6.5,��
2020/06/04,22:50,0.706,1.017,0.643,1.223,0.886,0.405,0.694,0.648,��,6.0,��
2020/06/04,23:00,0.707,1.015,0.642,1.223,0.887,0.405,0.695,0.649,��,5.1,��
2020/06/04,23:10,0.706,1.018,0.643,1.225,0.887,0.406,0.693,0.650,��,4.8,��
2020/06/04,23:20,0.707,1.017,0.641,1.223,0.886,0.405,0.695,0.649,��,5.7,��
2020/06/04,23:30,0.707,1.016,0.641,1.222,0.887,0.405,0.692,0.649,��,5.6,��
2020/06/04,23:40,0.707,1.019,0.643,1.224,0.885,0.404,0.692,0.648,��쐼,3.1,��
2020/06/04,23:50,0.707,1.017,0.642,1.222,0.888,0.405,0.693,0.649,�쐼,0.9,��
